AZU4496 SBCY-SBPV

Flight info

Callsign AZU4496
Flight time 2h 6m
Altitude 34000
Route GETMA DCT NETBU DCT DUBGI
Aircraft E295/M-SDFGHIRWY/H

Departure

Time 2026-05-05 00:36
Airport Várzea Grande–Marechal Rondon International Airport (SBCY)

Arrival

Time 2026-05-05 02:43
Airport Governador Jorge Teixeira de Oliveira International Airport (SBPV)
Time Latitude Longitude Altitude Speed Heading
2026-05-05 00:11 -15.64973 -56.12021 595 ft 0 kts 242°
2026-05-05 00:29 -15.64967 -56.12009 595 ft 3 kts 234°
2026-05-05 00:29 -15.64954 -56.11994 595 ft 3 kts 205°
2026-05-05 00:29 -15.64937 -56.11990 595 ft 3 kts 157°
2026-05-05 00:29 -15.64933 -56.11991 595 ft 0 kts 153°
2026-05-05 00:31 -15.64942 -56.11987 595 ft 4 kts 153°
2026-05-05 00:32 -15.64976 -56.11969 595 ft 7 kts 153°
2026-05-05 00:32 -15.65027 -56.11941 595 ft 10 kts 153°
2026-05-05 00:32 -15.65073 -56.11919 596 ft 5 kts 153°
2026-05-05 00:32 -15.65089 -56.11883 596 ft 7 kts 85°
2026-05-05 00:33 -15.65067 -56.11833 596 ft 9 kts 58°
2026-05-05 00:33 -15.64998 -56.11828 596 ft 13 kts 335°
2026-05-05 00:33 -15.64897 -56.11880 594 ft 19 kts 331°
2026-05-05 00:33 -15.64767 -56.11949 595 ft 23 kts 333°
2026-05-05 00:34 -15.64619 -56.12028 594 ft 25 kts 333°
2026-05-05 00:34 -15.64482 -56.12100 595 ft 18 kts 333°
2026-05-05 00:34 -15.64426 -56.12172 595 ft 10 kts 298°
2026-05-05 00:34 -15.64387 -56.12155 595 ft 6 kts 95°
2026-05-05 00:35 -15.64408 -56.12139 595 ft 0 kts 153°
2026-05-05 00:35 -15.64415 -56.12136 595 ft 10 kts 153°
2026-05-05 00:35 -15.64638 -56.12018 594 ft 62 kts 153°
2026-05-05 00:35 -15.65171 -56.11735 596 ft 108 kts 153°
2026-05-05 00:36 -15.65959 -56.11317 596 ft 144 kts 153°
2026-05-05 00:36 -15.66918 -56.10809 750 ft 162 kts 153°
2026-05-05 00:36 -15.68032 -56.10407 1114 ft 186 kts 178°
2026-05-05 00:36 -15.69333 -56.10682 1940 ft 197 kts 208°
2026-05-05 00:37 -15.70433 -56.11574 2781 ft 203 kts 225°
2026-05-05 00:37 -15.71418 -56.12676 3524 ft 218 kts 229°
2026-05-05 00:37 -15.72480 -56.13924 4171 ft 242 kts 229°
2026-05-05 00:37 -15.73678 -56.15287 4962 ft 260 kts 227°
2026-05-05 00:38 -15.74934 -56.16696 5754 ft 271 kts 230°
2026-05-05 00:38 -15.75993 -56.18359 6097 ft 279 kts 241°
2026-05-05 00:38 -15.76923 -56.20205 6198 ft 294 kts 244°
2026-05-05 00:38 -15.77820 -56.22054 6189 ft 286 kts 244°
2026-05-05 00:39 -15.78656 -56.23866 6147 ft 271 kts 252°
2026-05-05 00:39 -15.78872 -56.25771 6118 ft 274 kts 281°
2026-05-05 00:39 -15.78073 -56.27616 6846 ft 287 kts 305°
2026-05-05 00:39 -15.76926 -56.29339 7933 ft 292 kts 306°
2026-05-05 00:40 -15.75751 -56.31071 9045 ft 295 kts 307°
2026-05-05 00:40 -15.74513 -56.32787 10186 ft 298 kts 308°
2026-05-05 00:40 -15.73198 -56.34540 10911 ft 318 kts 308°
2026-05-05 00:40 -15.71866 -56.36422 11776 ft 327 kts 306°
2026-05-05 00:41 -15.70522 -56.38345 12768 ft 331 kts 306°
2026-05-05 00:41 -15.69154 -56.40293 13694 ft 337 kts 306°
2026-05-05 00:41 -15.67763 -56.42277 14589 ft 342 kts 307°
2026-05-05 00:41 -15.66368 -56.44259 15484 ft 347 kts 307°
2026-05-05 00:42 -15.64930 -56.46301 16356 ft 353 kts 307°
2026-05-05 00:42 -15.63473 -56.48367 17166 ft 358 kts 307°
2026-05-05 00:42 -15.61995 -56.50465 17930 ft 363 kts 307°
2026-05-05 00:42 -15.60491 -56.52598 18660 ft 368 kts 307°
2026-05-05 00:43 -15.58973 -56.54751 19383 ft 372 kts 307°
2026-05-05 00:43 -15.57439 -56.56928 20041 ft 376 kts 307°
2026-05-05 00:43 -15.55882 -56.59128 20652 ft 380 kts 307°
2026-05-05 00:43 -15.54334 -56.61320 21258 ft 384 kts 307°
2026-05-05 00:44 -15.52748 -56.63568 21868 ft 388 kts 306°
2026-05-05 00:44 -15.51150 -56.65836 22437 ft 391 kts 306°
2026-05-05 00:44 -15.49536 -56.68128 22992 ft 395 kts 306°
2026-05-05 00:44 -15.47904 -56.70438 23539 ft 399 kts 306°
2026-05-05 00:45 -15.46254 -56.72770 24061 ft 402 kts 306°
2026-05-05 00:45 -15.44594 -56.75119 24560 ft 406 kts 306°
2026-05-05 00:45 -15.42923 -56.77483 25071 ft 408 kts 306°
2026-05-05 00:45 -15.41261 -56.79833 25523 ft 411 kts 306°
2026-05-05 00:46 -15.39566 -56.82228 25980 ft 413 kts 306°
2026-05-05 00:46 -15.37860 -56.84637 26409 ft 416 kts 306°
2026-05-05 00:46 -15.36146 -56.87056 26849 ft 418 kts 306°
2026-05-05 00:46 -15.34421 -56.89488 27273 ft 420 kts 305°
2026-05-05 00:47 -15.32692 -56.91933 27680 ft 422 kts 305°
2026-05-05 00:47 -15.30952 -56.94389 28079 ft 424 kts 305°
2026-05-05 00:47 -15.29201 -56.96858 28469 ft 426 kts 305°
2026-05-05 00:47 -15.27470 -56.99302 28839 ft 428 kts 305°
2026-05-05 00:48 -15.25704 -57.01790 29164 ft 430 kts 305°
2026-05-05 00:48 -15.23929 -57.04292 29505 ft 432 kts 305°
2026-05-05 00:48 -15.22149 -57.06801 29833 ft 433 kts 304°
2026-05-05 00:48 -15.20359 -57.09321 30137 ft 435 kts 304°
2026-05-05 00:49 -15.18565 -57.11850 30422 ft 437 kts 304°
2026-05-05 00:49 -15.16762 -57.14392 30683 ft 439 kts 305°
2026-05-05 00:49 -15.14949 -57.16938 30949 ft 441 kts 305°
2026-05-05 00:49 -15.13127 -57.19498 31215 ft 442 kts 305°
2026-05-05 00:50 -15.11302 -57.22066 31480 ft 444 kts 305°
2026-05-05 00:50 -15.09493 -57.24610 31743 ft 445 kts 305°
2026-05-05 00:50 -15.07656 -57.27194 31999 ft 447 kts 305°
2026-05-05 00:50 -15.05807 -57.29793 32225 ft 449 kts 305°
2026-05-05 00:51 -15.03957 -57.32390 32546 ft 448 kts 305°
2026-05-05 00:51 -15.02113 -57.34978 32876 ft 447 kts 305°
2026-05-05 00:51 -15.00274 -57.37563 33202 ft 445 kts 305°
2026-05-05 00:51 -14.98436 -57.40139 33495 ft 445 kts 305°
2026-05-05 00:52 -14.96623 -57.42678 33768 ft 444 kts 305°
2026-05-05 00:52 -14.94795 -57.45239 34125 ft 441 kts 305°
2026-05-05 00:52 -14.92961 -57.47812 34118 ft 448 kts 305°
2026-05-05 00:53 -14.89201 -57.53081 34021 ft 463 kts 305°
2026-05-05 00:53 -14.85359 -57.58455 33990 ft 467 kts 305°
2026-05-05 00:54 -14.81499 -57.63856 34005 ft 467 kts 305°
2026-05-05 00:54 -14.77638 -57.69255 34005 ft 467 kts 305°
2026-05-05 00:55 -14.73768 -57.74658 34005 ft 468 kts 305°
2026-05-05 00:55 -14.69925 -57.80025 34006 ft 468 kts 305°
2026-05-05 00:56 -14.66056 -57.85425 34005 ft 468 kts 305°
2026-05-05 00:56 -14.62181 -57.90829 34008 ft 468 kts 305°
2026-05-05 00:57 -14.58307 -57.96224 34009 ft 468 kts 305°
2026-05-05 00:57 -14.54455 -58.01587 34006 ft 468 kts 305°
2026-05-05 00:58 -14.50578 -58.06984 34007 ft 468 kts 305°
2026-05-05 00:58 -14.46701 -58.12378 34009 ft 468 kts 305°
2026-05-05 00:59 -14.42817 -58.17772 33999 ft 468 kts 305°
2026-05-05 00:59 -14.38960 -58.23124 34004 ft 468 kts 307°
2026-05-05 01:00 -14.34720 -58.28240 33998 ft 469 kts 310°
2026-05-05 01:00 -14.30451 -58.33331 33999 ft 469 kts 309°
2026-05-05 01:01 -14.26216 -58.38441 34002 ft 469 kts 309°
2026-05-05 01:01 -14.22016 -58.43524 33998 ft 469 kts 309°
2026-05-05 01:02 -14.17789 -58.48634 33999 ft 469 kts 309°
2026-05-05 01:02 -14.13553 -58.53748 33999 ft 469 kts 309°
2026-05-05 01:03 -14.09320 -58.58859 34002 ft 469 kts 309°
2026-05-05 01:03 -14.05120 -58.63930 34008 ft 469 kts 309°
2026-05-05 01:04 -14.00892 -58.69034 34008 ft 469 kts 309°
2026-05-05 01:04 -13.94541 -58.76683 34012 ft 468 kts 309°
2026-05-05 01:05 -13.90304 -58.81781 34012 ft 468 kts 309°
2026-05-05 01:05 -13.86097 -58.86841 34010 ft 468 kts 309°
2026-05-05 01:06 -13.81867 -58.91935 34011 ft 468 kts 309°
2026-05-05 01:06 -13.77631 -58.97023 34010 ft 468 kts 309°
2026-05-05 01:07 -13.73397 -59.02109 34008 ft 468 kts 309°
2026-05-05 01:07 -13.69196 -59.07153 34009 ft 468 kts 309°
2026-05-05 01:08 -13.64961 -59.12236 34010 ft 468 kts 309°
2026-05-05 01:08 -13.60732 -59.17320 34011 ft 468 kts 309°
2026-05-05 01:09 -13.56494 -59.22390 34023 ft 467 kts 310°
2026-05-05 01:09 -13.52284 -59.27427 34021 ft 468 kts 310°
2026-05-05 01:10 -13.48049 -59.32496 34017 ft 467 kts 310°
2026-05-05 01:10 -13.43811 -59.37565 34018 ft 468 kts 310°
2026-05-05 01:11 -13.39574 -59.42632 34013 ft 468 kts 310°
2026-05-05 01:11 -13.35337 -59.47697 34019 ft 467 kts 310°
2026-05-05 01:12 -13.31126 -59.52721 34023 ft 467 kts 310°
2026-05-05 01:12 -13.26887 -59.57781 34019 ft 467 kts 310°
2026-05-05 01:13 -13.22645 -59.62837 34020 ft 467 kts 310°
2026-05-05 01:13 -13.18404 -59.67895 34020 ft 467 kts 310°
2026-05-05 01:14 -13.14193 -59.72913 34023 ft 467 kts 310°
2026-05-05 01:14 -13.09952 -59.77965 34020 ft 467 kts 310°
2026-05-05 01:15 -13.05711 -59.83015 34020 ft 467 kts 310°
2026-05-05 01:15 -13.01468 -59.88058 34018 ft 467 kts 310°
2026-05-05 01:16 -12.97223 -59.93104 34016 ft 467 kts 310°
2026-05-05 01:16 -12.92977 -59.98151 34024 ft 467 kts 310°
2026-05-05 01:17 -12.88760 -60.03160 34019 ft 467 kts 310°
2026-05-05 01:17 -12.84513 -60.08193 34020 ft 467 kts 310°
2026-05-05 01:18 -12.80265 -60.13229 34021 ft 467 kts 310°
2026-05-05 01:18 -12.76017 -60.18262 34023 ft 467 kts 310°
2026-05-05 01:19 -12.71800 -60.23262 34020 ft 467 kts 310°
2026-05-05 01:19 -12.67552 -60.28288 34021 ft 467 kts 310°
2026-05-05 01:20 -12.63300 -60.33320 34019 ft 467 kts 310°
2026-05-05 01:20 -12.59050 -60.38347 34019 ft 467 kts 310°
2026-05-05 01:21 -12.54829 -60.43334 34020 ft 467 kts 310°
2026-05-05 01:21 -12.50575 -60.48360 34016 ft 467 kts 310°
2026-05-05 01:22 -12.46325 -60.53377 34017 ft 467 kts 310°
2026-05-05 01:22 -12.42071 -60.58397 34020 ft 467 kts 310°
2026-05-05 01:23 -12.37813 -60.63412 34016 ft 467 kts 310°
2026-05-05 01:23 -12.33586 -60.68399 34017 ft 467 kts 310°
2026-05-05 01:24 -12.29332 -60.73414 34022 ft 467 kts 310°
2026-05-05 01:24 -12.25071 -60.78434 34016 ft 467 kts 310°
2026-05-05 01:25 -12.20815 -60.83444 34016 ft 467 kts 310°
2026-05-05 01:25 -12.16548 -60.88387 34014 ft 467 kts 316°
2026-05-05 01:26 -12.11668 -60.92779 34011 ft 468 kts 319°
2026-05-05 01:26 -12.06730 -60.97109 34014 ft 467 kts 319°
2026-05-05 01:27 -12.01803 -61.01439 34014 ft 467 kts 319°
2026-05-05 01:27 -11.96878 -61.05773 34019 ft 467 kts 319°
2026-05-05 01:28 -11.91982 -61.10076 34022 ft 467 kts 319°
2026-05-05 01:28 -11.87057 -61.14406 34022 ft 467 kts 319°
2026-05-05 01:29 -11.82132 -61.18735 34018 ft 467 kts 319°
2026-05-05 01:29 -11.77205 -61.23062 34002 ft 467 kts 319°
2026-05-05 01:30 -11.72312 -61.27358 34011 ft 467 kts 319°
2026-05-05 01:30 -11.67386 -61.31680 34011 ft 467 kts 319°
2026-05-05 01:31 -11.62456 -61.36005 34008 ft 467 kts 319°
2026-05-05 01:31 -11.57527 -61.40322 34012 ft 467 kts 319°
2026-05-05 01:32 -11.52634 -61.44614 34011 ft 467 kts 319°
2026-05-05 01:32 -11.47700 -61.48928 34009 ft 467 kts 319°
2026-05-05 01:33 -11.42768 -61.53240 34010 ft 467 kts 319°
2026-05-05 01:33 -11.37835 -61.57558 34008 ft 467 kts 319°
2026-05-05 01:34 -11.32935 -61.61842 34010 ft 467 kts 319°
2026-05-05 01:34 -11.27999 -61.66151 34007 ft 467 kts 319°
2026-05-05 01:35 -11.23064 -61.70463 34009 ft 467 kts 319°
2026-05-05 01:35 -11.18131 -61.74770 34011 ft 467 kts 319°
2026-05-05 01:36 -11.13198 -61.79085 34001 ft 467 kts 319°
2026-05-05 01:36 -11.08286 -61.83364 34001 ft 468 kts 319°
2026-05-05 01:37 -11.03346 -61.87670 34002 ft 468 kts 319°
2026-05-05 01:37 -10.98405 -61.91977 33990 ft 468 kts 319°
2026-05-05 01:38 -10.93452 -61.96280 33994 ft 468 kts 319°
2026-05-05 01:38 -10.88545 -62.00567 33991 ft 468 kts 319°
2026-05-05 01:39 -10.83600 -62.04868 33990 ft 468 kts 319°
2026-05-05 01:39 -10.78656 -62.09167 33992 ft 468 kts 319°
2026-05-05 01:40 -10.73709 -62.13471 33991 ft 468 kts 319°
2026-05-05 01:40 -10.68761 -62.17774 33993 ft 468 kts 319°
2026-05-05 01:41 -10.63844 -62.22044 33992 ft 468 kts 319°
2026-05-05 01:41 -10.58891 -62.26341 33976 ft 468 kts 319°
2026-05-05 01:42 -10.53941 -62.30642 33984 ft 468 kts 319°
2026-05-05 01:42 -10.49825 -62.34214 33982 ft 468 kts 319°
2026-05-05 01:43 -10.44870 -62.38513 33983 ft 469 kts 319°
2026-05-05 01:43 -10.39112 -62.43501 33980 ft 468 kts 319°
2026-05-05 01:44 -10.34996 -62.47068 33982 ft 468 kts 319°
2026-05-05 01:44 -10.30039 -62.51360 33982 ft 468 kts 319°
2026-05-05 01:45 -10.25085 -62.55649 33985 ft 468 kts 319°
2026-05-05 01:45 -10.22630 -62.57772 33964 ft 456 kts 319°
2026-05-05 01:45 -10.19689 -62.60731 33996 ft 448 kts 312°
2026-05-05 01:46 -10.16151 -62.64640 33986 ft 450 kts 312°
2026-05-05 01:46 -10.11882 -62.69231 33986 ft 450 kts 313°
2026-05-05 01:47 -10.07556 -62.73827 33634 ft 451 kts 313°
2026-05-05 01:47 -10.05417 -62.76090 33391 ft 436 kts 313°
2026-05-05 01:47 -10.03330 -62.78300 32723 ft 432 kts 313°
2026-05-05 01:48 -10.01272 -62.80482 32201 ft 425 kts 313°
2026-05-05 01:48 -9.99239 -62.82641 31592 ft 420 kts 313°
2026-05-05 01:48 -9.97235 -62.84762 31065 ft 415 kts 313°
2026-05-05 01:48 -9.95239 -62.86877 30507 ft 415 kts 313°
2026-05-05 01:49 -9.93259 -62.88975 29961 ft 421 kts 313°
2026-05-05 01:49 -9.91217 -62.91137 29402 ft 427 kts 314°
2026-05-05 01:49 -9.89151 -62.93322 28809 ft 432 kts 314°
2026-05-05 01:49 -9.87066 -62.95526 28252 ft 433 kts 314°
2026-05-05 01:50 -9.84980 -62.97733 27666 ft 434 kts 314°
2026-05-05 01:50 -9.82889 -62.99944 27086 ft 433 kts 314°
2026-05-05 01:50 -9.80818 -63.02134 26515 ft 429 kts 314°
2026-05-05 01:50 -9.78762 -63.04307 25947 ft 424 kts 314°
2026-05-05 01:51 -9.76729 -63.06456 25384 ft 420 kts 314°
2026-05-05 01:51 -9.74717 -63.08583 24827 ft 416 kts 314°
2026-05-05 01:51 -9.72745 -63.10667 24283 ft 413 kts 314°
2026-05-05 01:51 -9.70767 -63.12759 23739 ft 410 kts 314°
2026-05-05 01:52 -9.68796 -63.14840 23197 ft 407 kts 314°
2026-05-05 01:52 -9.66845 -63.16901 22675 ft 404 kts 314°
2026-05-05 01:52 -9.64906 -63.18947 22134 ft 400 kts 314°
2026-05-05 01:52 -9.62988 -63.20973 21613 ft 397 kts 314°
2026-05-05 01:53 -9.61084 -63.22982 21070 ft 393 kts 314°
2026-05-05 01:53 -9.59200 -63.24970 20556 ft 390 kts 314°
2026-05-05 01:53 -9.57352 -63.26920 20049 ft 386 kts 314°
2026-05-05 01:53 -9.55477 -63.28897 19529 ft 382 kts 314°
2026-05-05 01:54 -9.53669 -63.30805 19030 ft 379 kts 314°
2026-05-05 01:54 -9.51847 -63.32725 18526 ft 376 kts 315°
2026-05-05 01:54 -9.50044 -63.34626 18015 ft 373 kts 315°
2026-05-05 01:54 -9.48255 -63.36514 17537 ft 370 kts 315°
2026-05-05 01:55 -9.46484 -63.38381 17049 ft 367 kts 315°
2026-05-05 01:55 -9.44724 -63.40236 16561 ft 364 kts 315°
2026-05-05 01:55 -9.42980 -63.42073 16079 ft 360 kts 314°
2026-05-05 01:55 -9.41250 -63.43896 15605 ft 357 kts 315°
2026-05-05 01:56 -9.39535 -63.45702 15128 ft 354 kts 314°
2026-05-05 01:56 -9.37866 -63.47457 14934 ft 345 kts 315°
2026-05-05 01:56 -9.36202 -63.49209 14947 ft 347 kts 315°
2026-05-05 01:56 -9.34517 -63.50982 14990 ft 351 kts 314°
2026-05-05 01:57 -9.32794 -63.52797 14127 ft 363 kts 314°
2026-05-05 01:57 -9.31029 -63.54657 13102 ft 369 kts 314°
2026-05-05 01:57 -9.29243 -63.56536 12273 ft 369 kts 314°
2026-05-05 01:57 -9.27499 -63.58374 11802 ft 357 kts 314°
2026-05-05 01:58 -9.25822 -63.60139 11336 ft 347 kts 314°
2026-05-05 01:58 -9.24173 -63.61874 10878 ft 338 kts 314°
2026-05-05 01:58 -9.22560 -63.63571 10440 ft 330 kts 314°
2026-05-05 01:58 -9.20987 -63.65225 10002 ft 323 kts 314°
2026-05-05 01:59 -9.19444 -63.66848 9581 ft 316 kts 314°
2026-05-05 01:59 -9.17941 -63.68427 9157 ft 311 kts 314°
2026-05-05 01:59 -9.16453 -63.69991 8763 ft 306 kts 314°
2026-05-05 01:59 -9.14990 -63.71529 8351 ft 301 kts 314°
2026-05-05 02:00 -9.13548 -63.73045 7980 ft 296 kts 314°
2026-05-05 02:00 -9.12135 -63.74530 7645 ft 290 kts 314°
2026-05-05 02:00 -9.10782 -63.75965 7392 ft 282 kts 314°
2026-05-05 02:00 -9.09430 -63.77393 7176 ft 281 kts 315°
2026-05-05 02:01 -9.08065 -63.78809 6958 ft 282 kts 315°
2026-05-05 02:01 -9.06703 -63.80239 6710 ft 283 kts 315°
2026-05-05 02:01 -9.05338 -63.81678 6446 ft 283 kts 314°
2026-05-05 02:01 -9.03980 -63.83112 6197 ft 281 kts 315°
2026-05-05 02:02 -9.02621 -63.84530 5946 ft 280 kts 315°
2026-05-05 02:02 -9.01274 -63.85942 5697 ft 279 kts 315°
2026-05-05 02:02 -8.99971 -63.87305 5412 ft 264 kts 315°
2026-05-05 02:02 -8.98599 -63.88426 5112 ft 246 kts 337°
2026-05-05 02:03 -8.96984 -63.88745 4826 ft 232 kts 357°
2026-05-05 02:03 -8.95393 -63.88813 4623 ft 226 kts 358°
2026-05-05 02:03 -8.93845 -63.88893 4448 ft 219 kts 357°
2026-05-05 02:03 -8.92347 -63.88975 4164 ft 213 kts 357°
2026-05-05 02:04 -8.90933 -63.89055 3894 ft 207 kts 357°
2026-05-05 02:04 -8.89520 -63.89139 3649 ft 200 kts 357°
2026-05-05 02:04 -8.88174 -63.89221 3438 ft 192 kts 357°
2026-05-05 02:04 -8.86899 -63.89298 3420 ft 174 kts 357°
2026-05-05 02:05 -8.85742 -63.89362 3377 ft 162 kts 357°
2026-05-05 02:05 -8.84620 -63.89427 3345 ft 161 kts 357°
2026-05-05 02:05 -8.83510 -63.89495 3347 ft 156 kts 357°
2026-05-05 02:05 -8.82475 -63.89557 3388 ft 143 kts 357°
2026-05-05 02:06 -8.81497 -63.89616 3401 ft 141 kts 357°
2026-05-05 02:06 -8.80520 -63.89675 3411 ft 141 kts 357°
2026-05-05 02:06 -8.79543 -63.89733 3415 ft 141 kts 358°
2026-05-05 02:06 -8.78563 -63.89780 3392 ft 142 kts 358°
2026-05-05 02:07 -8.77588 -63.89834 3294 ft 142 kts 357°
2026-05-05 02:07 -8.76604 -63.89889 3153 ft 142 kts 358°
2026-05-05 02:07 -8.75614 -63.89955 2972 ft 144 kts 357°
2026-05-05 02:07 -8.74637 -63.90036 2748 ft 141 kts 356°
2026-05-05 02:08 -8.73675 -63.90133 2500 ft 137 kts 355°
2026-05-05 02:08 -8.72738 -63.90225 2380 ft 133 kts
2026-05-05 02:08 -8.71818 -63.90109 2453 ft 132 kts 10°
2026-05-05 02:08 -8.70893 -63.90122 2802 ft 135 kts 356°
2026-05-05 02:09 -8.69901 -63.90269 2815 ft 155 kts 352°
2026-05-05 02:09 -8.68747 -63.90388 2161 ft 176 kts 358°
2026-05-05 02:09 -8.67493 -63.90481 1458 ft 192 kts 355°
2026-05-05 02:09 -8.66088 -63.90604 851 ft 206 kts 354°
2026-05-05 02:10 -8.64732 -63.90739 1326 ft 198 kts 356°
2026-05-05 02:10 -8.63334 -63.90848 1901 ft 200 kts 356°
2026-05-05 02:10 -8.61904 -63.90959 2635 ft 200 kts 356°
2026-05-05 02:10 -8.60448 -63.91082 3000 ft 221 kts 356°
2026-05-05 02:11 -8.58913 -63.91204 2880 ft 223 kts 356°
2026-05-05 02:11 -8.57288 -63.91315 2838 ft 238 kts 356°
2026-05-05 02:11 -8.55689 -63.91433 3687 ft 225 kts 356°
2026-05-05 02:11 -8.54080 -63.91555 4029 ft 239 kts 356°
2026-05-05 02:12 -8.52471 -63.91664 4076 ft 232 kts 356°
2026-05-05 02:12 -8.49281 -63.91886 4065 ft 228 kts 356°
2026-05-05 02:12 -8.47694 -63.91997 4060 ft 227 kts 356°
2026-05-05 02:13 -8.46115 -63.92106 4058 ft 228 kts 356°
2026-05-05 02:13 -8.44537 -63.92216 4057 ft 228 kts 356°
2026-05-05 02:13 -8.42956 -63.92303 4056 ft 227 kts 356°
2026-05-05 02:13 -8.41452 -63.92741 4059 ft 229 kts 328°
2026-05-05 02:14 -8.40369 -63.93903 4060 ft 231 kts 297°
2026-05-05 02:14 -8.40027 -63.95448 4070 ft 232 kts 267°
2026-05-05 02:14 -8.40451 -63.97006 4091 ft 232 kts 240°
2026-05-05 02:14 -8.41532 -63.98194 4107 ft 233 kts 212°
2026-05-05 02:15 -8.43035 -63.98747 4129 ft 231 kts 185°
2026-05-05 02:15 -8.44693 -63.98796 3545 ft 249 kts 177°
2026-05-05 02:15 -8.46479 -63.98659 2844 ft 264 kts 174°
2026-05-05 02:15 -8.48251 -63.98512 2833 ft 246 kts 176°
2026-05-05 02:16 -8.49912 -63.98449 2812 ft 233 kts 177°
2026-05-05 02:16 -8.51487 -63.98402 2818 ft 226 kts 179°
2026-05-05 02:16 -8.52988 -63.98404 2849 ft 224 kts 180°
2026-05-05 02:16 -8.54554 -63.98420 2892 ft 226 kts 180°
2026-05-05 02:17 -8.56123 -63.98435 2930 ft 226 kts 180°
2026-05-05 02:17 -8.57705 -63.98443 2980 ft 228 kts 179°
2026-05-05 02:17 -8.59289 -63.98434 3012 ft 227 kts 179°
2026-05-05 02:17 -8.60875 -63.98445 2998 ft 228 kts 180°
2026-05-05 02:18 -8.62458 -63.98445 2990 ft 227 kts 179°
2026-05-05 02:18 -8.64019 -63.98444 2998 ft 227 kts 179°
2026-05-05 02:18 -8.65597 -63.98447 2998 ft 227 kts 179°
2026-05-05 02:18 -8.67178 -63.98448 2999 ft 227 kts 179°
2026-05-05 02:19 -8.68762 -63.98447 2998 ft 227 kts 179°
2026-05-05 02:19 -8.70344 -63.98448 2999 ft 227 kts 179°
2026-05-05 02:19 -8.71923 -63.98447 2999 ft 227 kts 179°
2026-05-05 02:19 -8.73507 -63.98447 2998 ft 227 kts 179°
2026-05-05 02:20 -8.75087 -63.98446 2999 ft 227 kts 179°
2026-05-05 02:20 -8.76668 -63.98445 3000 ft 227 kts 179°
2026-05-05 02:20 -8.78227 -63.98445 3007 ft 226 kts 179°
2026-05-05 02:20 -8.79790 -63.98445 3028 ft 222 kts 179°
2026-05-05 02:21 -8.81288 -63.98445 2949 ft 208 kts 179°
2026-05-05 02:21 -8.82686 -63.98442 2952 ft 195 kts 179°
2026-05-05 02:21 -8.84031 -63.98444 2977 ft 193 kts 180°
2026-05-05 02:21 -8.85375 -63.98445 3013 ft 194 kts 180°
2026-05-05 02:22 -8.86735 -63.98446 2974 ft 197 kts 179°
2026-05-05 02:22 -8.88102 -63.98443 2873 ft 196 kts 179°
2026-05-05 02:22 -8.89448 -63.98305 2775 ft 194 kts 162°
2026-05-05 02:22 -8.90575 -63.97638 2738 ft 191 kts 133°
2026-05-05 02:23 -8.91250 -63.96492 2618 ft 192 kts 105°
2026-05-05 02:23 -8.91291 -63.95157 2464 ft 191 kts 75°
2026-05-05 02:23 -8.90827 -63.93914 2332 ft 189 kts 66°
2026-05-05 02:23 -8.90282 -63.92707 2172 ft 188 kts 65°
2026-05-05 02:24 -8.89753 -63.91526 2126 ft 180 kts 66°
2026-05-05 02:24 -8.89189 -63.90402 2048 ft 182 kts 54°
2026-05-05 02:24 -8.88242 -63.89569 1957 ft 180 kts 26°
2026-05-05 02:24 -8.87043 -63.89294 1959 ft 182 kts
2026-05-05 02:25 -8.85773 -63.89345 1983 ft 183 kts 357°
2026-05-05 02:25 -8.84505 -63.89430 1987 ft 183 kts 357°
2026-05-05 02:25 -8.83259 -63.89511 1983 ft 173 kts 357°
2026-05-05 02:25 -8.82099 -63.89587 1923 ft 162 kts 358°
2026-05-05 02:26 -8.80994 -63.89654 1896 ft 157 kts 358°
2026-05-05 02:26 -8.79928 -63.89712 1870 ft 150 kts 358°
2026-05-05 02:26 -8.78876 -63.89774 1655 ft 151 kts 358°
2026-05-05 02:26 -8.77848 -63.89832 1481 ft 142 kts 358°
2026-05-05 02:27 -8.76901 -63.89883 1303 ft 136 kts 359°
2026-05-05 02:27 -8.75963 -63.89932 1095 ft 134 kts 359°
2026-05-05 02:27 -8.75033 -63.89979 901 ft 133 kts 359°
2026-05-05 02:27 -8.74103 -63.90027 705 ft 136 kts 358°
2026-05-05 02:28 -8.73164 -63.90109 530 ft 136 kts 356°
2026-05-05 02:28 -8.72234 -63.90205 415 ft 134 kts
2026-05-05 02:28 -8.71303 -63.90271 1068 ft 133 kts 356°
2026-05-05 02:28 -8.70262 -63.90345 1492 ft 169 kts 358°
2026-05-05 02:29 -8.69043 -63.90374 2316 ft 182 kts 359°
2026-05-05 02:29 -8.67684 -63.90442 2742 ft 219 kts 357°
2026-05-05 02:29 -8.66080 -63.90528 2739 ft 232 kts 358°
2026-05-05 02:29 -8.64400 -63.90613 2469 ft 249 kts 358°
2026-05-05 02:30 -8.62671 -63.90699 2573 ft 254 kts 357°
2026-05-05 02:30 -8.60909 -63.90822 2832 ft 254 kts 356°
2026-05-05 02:30 -8.59143 -63.90941 3018 ft 257 kts 356°
2026-05-05 02:30 -8.57325 -63.91062 3013 ft 262 kts 356°
2026-05-05 02:31 -8.55558 -63.91178 3004 ft 247 kts 356°
2026-05-05 02:31 -8.53903 -63.91341 2989 ft 233 kts 346°
2026-05-05 02:31 -8.52580 -63.92162 3031 ft 224 kts 309°
2026-05-05 02:31 -8.52040 -63.93617 3041 ft 226 kts 271°
2026-05-05 02:32 -8.52452 -63.95139 3038 ft 229 kts 235°
2026-05-05 02:32 -8.53645 -63.96144 3069 ft 236 kts 202°
2026-05-05 02:32 -8.55222 -63.96681 3143 ft 241 kts 196°
2026-05-05 02:32 -8.56859 -63.97072 3183 ft 243 kts 197°
2026-05-05 02:33 -8.58477 -63.97663 3126 ft 252 kts 197°
2026-05-05 02:33 -8.60198 -63.98013 2994 ft 249 kts 186°
2026-05-05 02:33 -8.61912 -63.98176 2998 ft 247 kts 184°
2026-05-05 02:33 -8.63631 -63.98288 2990 ft 248 kts 182°
2026-05-05 02:34 -8.65356 -63.98346 2993 ft 248 kts 181°
2026-05-05 02:34 -8.67084 -63.98391 2997 ft 252 kts 181°
2026-05-05 02:34 -8.68926 -63.98422 2985 ft 268 kts 180°
2026-05-05 02:34 -8.70764 -63.98427 2990 ft 269 kts 180°
2026-05-05 02:35 -8.72632 -63.98437 2988 ft 270 kts 180°
2026-05-05 02:35 -8.74510 -63.98443 2998 ft 269 kts 180°
2026-05-05 02:35 -8.76382 -63.98445 2993 ft 270 kts 180°
2026-05-05 02:35 -8.78257 -63.98445 2996 ft 269 kts 180°
2026-05-05 02:36 -8.80131 -63.98446 2998 ft 269 kts 180°
2026-05-05 02:36 -8.81989 -63.98445 2890 ft 261 kts 179°
2026-05-05 02:36 -8.83750 -63.98441 2892 ft 245 kts 180°
2026-05-05 02:36 -8.85387 -63.98442 2884 ft 232 kts 179°
2026-05-05 02:37 -8.86973 -63.98442 2854 ft 225 kts 179°
2026-05-05 02:37 -8.88526 -63.98439 2848 ft 221 kts 178°
2026-05-05 02:37 -8.89964 -63.98087 2758 ft 208 kts 150°
2026-05-05 02:37 -8.90963 -63.97121 2664 ft 195 kts 119°
2026-05-05 02:38 -8.91342 -63.95839 2525 ft 190 kts 91°
2026-05-05 02:38 -8.91077 -63.94550 2411 ft 188 kts 68°
2026-05-05 02:38 -8.90549 -63.93339 2276 ft 189 kts 65°
2026-05-05 02:38 -8.90010 -63.92130 2140 ft 187 kts 66°
2026-05-05 02:39 -8.89489 -63.90940 2100 ft 184 kts 64°
2026-05-05 02:39 -8.88742 -63.89901 1955 ft 187 kts 39°
2026-05-05 02:39 -8.87592 -63.89347 1955 ft 185 kts 11°
2026-05-05 02:39 -8.86298 -63.89308 1978 ft 187 kts 358°
2026-05-05 02:40 -8.84994 -63.89391 1989 ft 187 kts 357°
2026-05-05 02:40 -8.83707 -63.89480 1949 ft 184 kts 357°
2026-05-05 02:40 -8.82451 -63.89563 1971 ft 177 kts 358°
2026-05-05 02:40 -8.81321 -63.89631 1922 ft 167 kts 358°
2026-05-05 02:41 -8.80187 -63.89697 1899 ft 160 kts 358°
2026-05-05 02:41 -8.79084 -63.89759 1696 ft 158 kts 358°
2026-05-05 02:41 -8.78046 -63.89817 1535 ft 145 kts 358°
2026-05-05 02:41 -8.77065 -63.89871 1313 ft 140 kts 359°
2026-05-05 02:42 -8.76100 -63.89920 1108 ft 137 kts 358°
2026-05-05 02:42 -8.75153 -63.89974 931 ft 136 kts 358°
2026-05-05 02:42 -8.74204 -63.90036 727 ft 138 kts 357°
2026-05-05 02:42 -8.73244 -63.90098 515 ft 139 kts 358°
2026-05-05 02:43 -8.72733 -63.90119 308 ft 0 kts 99°